Grand Forks AFB, ND

6:28 PM CST on December 10, 2016 (GMT -0600)
Grand Forks Air Force Base

Weather History for KRDR - October, 2012

Change the Weather History Date:

Tuesday, October 9, 2012

  Actual Average Record
Temperature  
Mean Temperature 37 °F -  
Max Temperature 42 °F 57 °F 82 °F (2003)
Min Temperature 29 °F 34 °F 24 °F (2002)
Degree Days  
Heating Degree Days 28    
Moisture  
Dew Point 31 °F    
Average Humidity 76    
Maximum Humidity 93    
Minimum Humidity 53    
Precipitation  
Precipitation 0.01 in - - ()
Sea Level Pressure  
Sea Level Pressure 29.85 in    
Wind  
Wind Speed 15 mph (NNW)    
Max Wind Speed 22 mph    
Max Gust Speed 31 mph    
Visibility 10 miles    
Events Rain    
Averages and records for this station are not official NWS values.
T = Trace of Precipitation, MM = Missing Value Source: NWS Daily Summary

Daily Weather History Graph

Daily Weather History Graph

Search for Another Location

Airport or City:

Trip Planner

Search our weather history database for the weather conditions in past years. The results will help you decide how hot, cold, wet, or windy it might be!

Date:

Astronomy

Oct. 09, 2012 Rise Set
Actual Time 7:40 AM CDT 6:51 PM CDT
Civil Twilight 7:09 AM CDT 7:22 PM CDT
Nautical Twilight 6:33 AM CDT 7:58 PM CDT
Astronomical Twilight 5:57 AM CDT 8:34 PM CDT
Moon 12:52 AM CDT (10/9) 3:43 PM CDT (10/9)
Length of Visible Light 12h 12m
Length of Day
11h 10m
Last Quarter, 36% of the Moon is Illuminated
Oct 9
Last Quarter
Oct 15
New
Oct 21
First Quarter
Oct 29
Full
Nov 6
Last Quarter

Hourly Weather History & Observations

Time (CDT) Temp. Windchill Dew Point Humidity Pressure Visibility Wind Dir Wind Speed Gust Speed Precip Events Conditions
12:55 AM 40.3 °F 32.2 °F 30.4 °F 68% 29.67 in 10.0 mi West 15.0 mph 20.7 mph N/A   Clear
1:55 AM 39.7 °F 31.9 °F 30.0 °F 68% 29.68 in 10.0 mi WNW 13.8 mph - N/A   Clear
2:55 AM 37.9 °F 30.5 °F 30.4 °F 74% 29.68 in 10.0 mi WNW 11.5 mph - N/A   Scattered Clouds
3:55 AM 39.4 °F 32.7 °F 31.6 °F 74% 29.68 in 10.0 mi WNW 10.4 mph - N/A   Overcast
4:49 AM 39.2 °F 32.5 °F 32.0 °F 75% 29.68 in 10.0 mi NW 10.4 mph - N/A   Light Drizzle
4:55 AM 38.8 °F 32.1 °F 32.5 °F 78% 29.68 in 10.0 mi NW 10.4 mph - 0.00 in   Light Drizzle
4:58 AM 39.2 °F 32.0 °F 32.0 °F 75% 29.68 in 10.0 mi WNW 11.5 mph - N/A   Mostly Cloudy
5:55 AM 38.1 °F 30.7 °F 33.1 °F 82% 29.70 in 10.0 mi NW 11.5 mph - 0.00 in   Overcast
6:10 AM 37.4 °F 30.3 °F 33.8 °F 87% 29.70 in 10.0 mi NW 10.4 mph - N/A   Mostly Cloudy
6:21 AM 37.4 °F 30.3 °F 33.8 °F 87% 29.70 in 10.0 mi NW 10.4 mph - N/A   Overcast
6:24 AM 37.4 °F 29.3 °F 33.8 °F 87% 29.70 in 10.0 mi NW 12.7 mph - N/A   Light Drizzle
6:35 AM 37.4 °F 29.8 °F 33.8 °F 87% 29.70 in 10.0 mi NW 11.5 mph 18.4 mph N/A   Overcast
6:48 AM 37.4 °F 28.9 °F 33.8 °F 87% 29.71 in 10.0 mi NW 13.8 mph - N/A   Light Drizzle
6:54 AM 37.4 °F 27.5 °F 33.8 °F 87% 29.72 in 10.0 mi North 18.4 mph 26.5 mph N/A Rain Light Rain
6:55 AM 37.9 °F 28.2 °F 34.2 °F 86% 29.72 in 10.0 mi NNW 18.4 mph 23.0 mph 0.00 in Rain Light Rain
6:57 AM 37.4 °F 27.2 °F 33.8 °F 87% 29.73 in 10.0 mi North 19.6 mph 31.1 mph N/A Rain Light Rain
7:04 AM 35.6 °F 25.2 °F 32.0 °F 87% 29.73 in 10.0 mi North 18.4 mph 31.1 mph N/A Rain Light Rain
7:10 AM 35.6 °F 26.2 °F 32.0 °F 87% 29.74 in 10.0 mi North 15.0 mph 24.2 mph N/A Rain Light Rain
7:15 AM 33.8 °F 23.5 °F 32.0 °F 93% 29.74 in 10.0 mi NNW 16.1 mph - N/A Rain Light Rain
7:19 AM 33.8 °F 23.2 °F 32.0 °F 93% 29.74 in 10.0 mi North 17.3 mph - N/A Rain Light Rain
7:55 AM 34.0 °F 23.4 °F 32.2 °F 93% 29.76 in 10.0 mi North 17.3 mph 24.2 mph 0.00 in Rain Light Rain
8:06 AM 33.8 °F 23.2 °F 32.0 °F 93% 29.78 in 10.0 mi North 17.3 mph 25.3 mph N/A   Overcast
8:11 AM 33.8 °F 22.8 °F 32.0 °F 93% 29.78 in 10.0 mi North 18.4 mph - N/A Rain Light Rain
8:23 AM 35.6 °F 24.2 °F 32.0 °F 87% 29.79 in 10.0 mi North 21.9 mph 26.5 mph N/A   Overcast
8:47 AM 35.6 °F 24.8 °F 32.0 °F 87% 29.80 in 10.0 mi North 19.6 mph 24.2 mph N/A   Overcast
8:54 AM 35.6 °F 25.5 °F 32.0 °F 87% 29.81 in 10.0 mi North 17.3 mph 26.5 mph N/A Rain Light Rain
8:55 AM 35.2 °F 24.4 °F 32.0 °F 88% 29.81 in 10.0 mi North 19.6 mph 26.5 mph 0.00 in   Overcast
9:03 AM 35.6 °F 25.9 °F 32.0 °F 87% 29.81 in 10.0 mi North 16.1 mph - N/A Rain Light Rain
9:06 AM 35.6 °F 24.5 °F 32.0 °F 87% 29.81 in 10.0 mi North 20.7 mph 26.5 mph N/A   Overcast
9:55 AM 36.5 °F 25.4 °F 31.8 °F 83% 29.84 in 10.0 mi North 21.9 mph 26.5 mph 0.00 in   Overcast
10:25 AM 37.4 °F 26.9 °F 32.0 °F 81% 29.86 in 10.0 mi North 20.7 mph 27.6 mph N/A Rain Light Rain
10:32 AM 37.4 °F 27.5 °F 33.8 °F 87% 29.87 in 10.0 mi North 18.4 mph 27.6 mph N/A Rain Light Rain
10:53 AM 37.4 °F 27.5 °F 33.8 °F 87% 29.88 in 10.0 mi North 18.4 mph 23.0 mph N/A Rain Light Rain
10:55 AM 37.4 °F 28.2 °F 33.6 °F 86% 29.88 in 10.0 mi North 16.1 mph 23.0 mph 0.00 in Rain Light Rain
10:59 AM 37.4 °F 27.2 °F 32.0 °F 81% 29.88 in 10.0 mi North 19.6 mph 28.8 mph N/A Rain Light Rain
11:03 AM 37.4 °F 27.2 °F 32.0 °F 81% 29.88 in 10.0 mi North 19.6 mph 31.1 mph N/A Rain Light Rain
11:07 AM 37.4 °F 26.9 °F 32.0 °F 81% 29.89 in 10.0 mi North 20.7 mph 31.1 mph N/A   Light Drizzle
11:15 AM 37.4 °F 27.5 °F 32.0 °F 81% 29.89 in 10.0 mi North 18.4 mph 26.5 mph N/A   Overcast
11:43 AM 39.2 °F 29.8 °F 30.2 °F 70% 29.90 in 10.0 mi North 18.4 mph 28.8 mph N/A   Overcast
11:45 AM 39.2 °F 30.5 °F 30.2 °F 70% 29.90 in 10.0 mi North 16.1 mph 28.8 mph N/A   Overcast
11:51 AM 41.0 °F 31.4 °F 30.2 °F 65% 29.90 in 10.0 mi North 21.9 mph 31.1 mph N/A   Overcast
11:55 AM 40.3 °F 30.7 °F 29.7 °F 66% 29.99 in 10.0 mi North 20.7 mph 31.1 mph 0.01 in   Overcast
12:22 PM 41.0 °F 31.6 °F 30.2 °F 65% 29.91 in 10.0 mi North 20.7 mph 27.6 mph N/A   Overcast
12:27 PM 39.2 °F 30.2 °F 28.4 °F 65% 29.91 in 10.0 mi NNW 17.3 mph 27.6 mph N/A Rain Light Rain
12:36 PM 39.2 °F 29.6 °F 28.4 °F 65% 29.92 in 10.0 mi North 19.6 mph 25.3 mph N/A   Overcast
12:38 PM 39.2 °F 30.2 °F 28.4 °F 65% 29.92 in 10.0 mi North 17.3 mph 25.3 mph N/A Rain Light Rain
12:53 PM 39.2 °F 29.6 °F 28.4 °F 65% 29.92 in 10.0 mi North 19.6 mph 25.3 mph N/A   Overcast
12:55 PM 39.2 °F 29.6 °F 28.9 °F 67% 29.92 in 10.0 mi North 19.6 mph 25.3 mph 0.00 in Rain Light Rain
1:22 PM 39.2 °F 30.5 °F 28.4 °F 65% 29.93 in 10.0 mi North 16.1 mph 24.2 mph N/A Rain Light Rain
1:41 PM 39.2 °F 30.8 °F 28.4 °F 65% 29.93 in 10.0 mi North 15.0 mph 25.3 mph N/A   Overcast
1:55 PM 40.5 °F 32.8 °F 28.9 °F 64% 29.93 in 10.0 mi NNW 13.8 mph 20.7 mph 0.00 in   Overcast
2:10 PM 41.0 °F 32.5 °F 28.4 °F 61% 29.93 in 10.0 mi NNW 17.3 mph 23.0 mph N/A Rain Light Rain
2:21 PM 41.0 °F 33.5 °F 28.4 °F 61% 29.93 in 10.0 mi North 13.8 mph - N/A   Mostly Cloudy
2:42 PM 39.2 °F 30.5 °F 30.2 °F 70% 29.94 in 10.0 mi North 16.1 mph - N/A Rain Light Rain
2:55 PM 38.7 °F 29.5 °F 29.8 °F 71% 29.94 in 10.0 mi North 17.3 mph 23.0 mph 0.00 in Rain Light Rain
2:57 PM 39.2 °F 29.6 °F 28.4 °F 65% 29.95 in 10.0 mi NNW 19.6 mph 24.2 mph N/A   Overcast
3:55 PM 41.0 °F 33.1 °F 25.3 °F 54% 29.96 in 10.0 mi NNW 15.0 mph 19.6 mph 0.00 in   Overcast
4:55 PM 41.0 °F 33.1 °F 25.2 °F 53% 29.97 in 10.0 mi NNW 15.0 mph - N/A   Overcast
5:55 PM 39.9 °F 32.9 °F 27.1 °F 60% 29.99 in 10.0 mi NNW 11.5 mph - N/A   Mostly Cloudy
5:56 PM 39.2 °F 32.5 °F 26.6 °F 61% 29.99 in 10.0 mi NNW 10.4 mph - N/A Rain Light Rain
6:16 PM 37.4 °F 30.8 °F 28.4 °F 70% 29.99 in 10.0 mi NW 9.2 mph - N/A   Overcast
6:29 PM 39.2 °F 33.6 °F 28.4 °F 65% 30.00 in 10.0 mi NW 8.1 mph - N/A Rain Light Rain
6:44 PM 37.4 °F 32.1 °F 28.4 °F 70% 30.00 in 10.0 mi NW 6.9 mph - N/A   Mostly Cloudy
6:55 PM 37.4 °F 31.4 °F 27.9 °F 68% 30.00 in 10.0 mi NW 8.1 mph - 0.00 in   Mostly Cloudy
7:55 PM 35.8 °F 30.9 °F 28.4 °F 75% 30.01 in 10.0 mi NW 5.8 mph - N/A   Mostly Cloudy
8:55 PM 35.2 °F 30.3 °F 28.0 °F 75% 30.02 in 10.0 mi WNW 5.8 mph - N/A   Overcast
9:55 PM 36.0 °F 31.1 °F 29.1 °F 76% 30.02 in 10.0 mi NNW 5.8 mph - N/A   Overcast
10:55 PM 34.3 °F 30.2 °F 28.8 °F 80% 30.02 in 10.0 mi WNW 4.6 mph - N/A   Overcast
11:55 PM 29.7 °F 23.7 °F 25.5 °F 85% 30.03 in 10.0 mi WNW 5.8 mph - N/A   Clear